Year,Month,Day,Hour,Minute,Value (Times are PST for temperature in C)
2017,07,18,00,00,17.20
2017,07,18,00,01,17.20
2017,07,18,00,02,17.10
2017,07,18,00,03,17.10
2017,07,18,00,04,17.00
2017,07,18,00,05,17.00
2017,07,18,00,06,16.90
2017,07,18,00,07,16.90
2017,07,18,00,08,16.80
2017,07,18,00,09,16.80
2017,07,18,00,10,16.80
2017,07,18,00,11,16.70
2017,07,18,00,12,16.70
2017,07,18,00,13,16.60
2017,07,18,00,14,16.60
2017,07,18,00,15,16.60
2017,07,18,00,16,16.50
2017,07,18,00,17,16.50
2017,07,18,00,18,16.50
2017,07,18,00,19,16.40
2017,07,18,00,20,16.40
2017,07,18,00,21,16.40
2017,07,18,00,22,16.30
2017,07,18,00,23,16.30
2017,07,18,00,24,16.30
2017,07,18,00,25,16.20
2017,07,18,00,26,16.20
2017,07,18,00,27,16.20
2017,07,18,00,28,16.20
2017,07,18,00,29,16.10
2017,07,18,00,30,16.10
2017,07,18,00,31,16.10
2017,07,18,00,32,16.00
2017,07,18,00,33,16.00
2017,07,18,00,34,16.00
2017,07,18,00,35,16.00
2017,07,18,00,36,16.00
2017,07,18,00,37,15.90
2017,07,18,00,38,15.90
2017,07,18,00,39,15.90
2017,07,18,00,40,15.90
2017,07,18,00,41,15.90
2017,07,18,00,42,15.90
2017,07,18,00,43,16.00
2017,07,18,00,44,16.00
2017,07,18,00,45,16.00
2017,07,18,00,46,16.10
2017,07,18,00,47,16.10
2017,07,18,00,48,16.20
2017,07,18,00,49,16.20
2017,07,18,00,50,16.20
2017,07,18,00,51,16.20
2017,07,18,00,52,16.30
2017,07,18,00,53,16.30
2017,07,18,00,54,16.30
2017,07,18,00,55,16.30
2017,07,18,00,56,16.30
2017,07,18,00,57,16.30
2017,07,18,00,58,16.30
2017,07,18,00,59,16.30
2017,07,18,01,00,16.30
2017,07,18,01,01,16.30
2017,07,18,01,02,16.30
2017,07,18,01,03,16.30
2017,07,18,01,04,16.20
2017,07,18,01,05,16.20
2017,07,18,01,06,16.10
2017,07,18,01,07,16.10
2017,07,18,01,08,16.10
2017,07,18,01,09,16.00
2017,07,18,01,10,16.00
2017,07,18,01,11,15.90
2017,07,18,01,12,15.90
2017,07,18,01,13,15.90
2017,07,18,01,14,15.90
2017,07,18,01,15,15.80
2017,07,18,01,16,15.80
2017,07,18,01,17,15.80
2017,07,18,01,18,15.80
2017,07,18,01,19,15.70
2017,07,18,01,20,15.70
2017,07,18,01,21,15.70
2017,07,18,01,22,15.60
2017,07,18,01,23,15.60
2017,07,18,01,24,15.60
2017,07,18,01,25,15.50
2017,07,18,01,26,15.50
2017,07,18,01,27,15.50
2017,07,18,01,28,15.50
2017,07,18,01,29,15.40
2017,07,18,01,30,15.40
2017,07,18,01,31,15.40
2017,07,18,01,32,15.40
2017,07,18,01,33,15.30
2017,07,18,01,34,15.30
2017,07,18,01,35,15.30
2017,07,18,01,36,15.30
2017,07,18,01,37,15.30
2017,07,18,01,38,15.30
2017,07,18,01,39,15.30
2017,07,18,01,40,15.30
2017,07,18,01,41,15.20
2017,07,18,01,42,15.20
2017,07,18,01,43,15.20
2017,07,18,01,44,15.20
2017,07,18,01,45,15.20
2017,07,18,01,46,15.20
2017,07,18,01,47,15.10
2017,07,18,01,48,15.10
2017,07,18,01,49,15.10
2017,07,18,01,50,15.10
2017,07,18,01,51,15.10
2017,07,18,01,52,15.10
2017,07,18,01,53,15.10
2017,07,18,01,54,15.10
2017,07,18,01,55,15.00
2017,07,18,01,56,15.00
2017,07,18,01,57,15.00
2017,07,18,01,58,15.00
2017,07,18,01,59,15.00
2017,07,18,02,00,15.00
2017,07,18,02,01,15.00
2017,07,18,02,02,15.00
2017,07,18,02,03,15.00
2017,07,18,02,04,14.90
2017,07,18,02,05,15.00
2017,07,18,02,06,14.90
2017,07,18,02,07,14.90
2017,07,18,02,08,14.90
2017,07,18,02,09,14.90
2017,07,18,02,10,14.90
2017,07,18,02,11,14.90
2017,07,18,02,12,14.90
2017,07,18,02,13,14.90
2017,07,18,02,14,14.90
2017,07,18,02,15,14.90
2017,07,18,02,16,14.90
2017,07,18,02,17,14.80
2017,07,18,02,18,14.80
2017,07,18,02,19,14.80
2017,07,18,02,20,14.80
2017,07,18,02,21,14.80
2017,07,18,02,22,14.80
2017,07,18,02,23,14.80
2017,07,18,02,24,14.70
2017,07,18,02,25,14.70
2017,07,18,02,26,14.70
2017,07,18,02,27,14.70
2017,07,18,02,28,14.70
2017,07,18,02,29,14.70
2017,07,18,02,30,14.70
2017,07,18,02,31,14.70
2017,07,18,02,32,14.70
2017,07,18,02,33,14.70
2017,07,18,02,34,14.70
2017,07,18,02,35,14.70
2017,07,18,02,36,14.70
2017,07,18,02,37,14.70
2017,07,18,02,38,14.70
2017,07,18,02,39,14.60
2017,07,18,02,40,14.60
2017,07,18,02,41,14.60
2017,07,18,02,42,14.60
2017,07,18,02,43,14.60
2017,07,18,02,44,14.60
2017,07,18,02,45,14.60
2017,07,18,02,46,14.60
2017,07,18,02,47,14.60
2017,07,18,02,48,14.60
2017,07,18,02,49,14.60
2017,07,18,02,50,14.60
2017,07,18,02,51,14.60
2017,07,18,02,52,14.60
2017,07,18,02,53,14.50
2017,07,18,02,54,14.50
2017,07,18,02,55,14.50
2017,07,18,02,56,14.50
2017,07,18,02,57,14.50
2017,07,18,02,58,14.50
2017,07,18,02,59,14.50
2017,07,18,03,00,14.50
2017,07,18,03,01,14.60
2017,07,18,03,02,14.60
2017,07,18,03,03,14.60
2017,07,18,03,04,14.60
2017,07,18,03,05,14.60
2017,07,18,03,06,14.60
2017,07,18,03,07,14.60
2017,07,18,03,08,14.70
2017,07,18,03,09,14.70
2017,07,18,03,10,14.70
2017,07,18,03,11,14.70
2017,07,18,03,12,14.70
2017,07,18,03,13,14.70
2017,07,18,03,14,14.60
2017,07,18,03,15,14.60
2017,07,18,03,16,14.60
2017,07,18,03,17,14.60
2017,07,18,03,18,14.60
2017,07,18,03,19,14.60
2017,07,18,03,20,14.60
2017,07,18,03,21,14.60
2017,07,18,03,22,14.50
2017,07,18,03,23,14.50
2017,07,18,03,24,14.50
2017,07,18,03,25,14.50
2017,07,18,03,26,14.50
2017,07,18,03,27,14.50
2017,07,18,03,28,14.50
2017,07,18,03,29,14.50
2017,07,18,03,30,14.50
2017,07,18,03,31,14.50
2017,07,18,03,32,14.50
2017,07,18,03,33,14.50
2017,07,18,03,34,14.50
2017,07,18,03,35,14.50
2017,07,18,03,36,14.50
2017,07,18,03,37,14.50
2017,07,18,03,38,14.50
2017,07,18,03,39,14.50
2017,07,18,03,40,14.50
2017,07,18,03,41,14.50
2017,07,18,03,42,14.50
2017,07,18,03,43,14.50
2017,07,18,03,44,14.60
2017,07,18,03,45,14.60
2017,07,18,03,46,14.60
2017,07,18,03,47,14.60
2017,07,18,03,48,14.60
2017,07,18,03,49,14.70
2017,07,18,03,50,14.70
2017,07,18,03,51,14.70
2017,07,18,03,52,14.70
2017,07,18,03,53,14.70
2017,07,18,03,54,14.70
2017,07,18,03,55,14.80
2017,07,18,03,56,14.80
2017,07,18,03,57,14.90
2017,07,18,03,58,15.00
2017,07,18,03,59,15.10
2017,07,18,04,00,15.20
2017,07,18,04,01,15.40
2017,07,18,04,02,15.50
2017,07,18,04,03,15.60
2017,07,18,04,04,15.70
2017,07,18,04,05,15.70
2017,07,18,04,06,15.80
2017,07,18,04,07,15.80
2017,07,18,04,08,15.80
2017,07,18,04,09,15.80
2017,07,18,04,10,15.70
2017,07,18,04,11,15.70
2017,07,18,04,12,15.70
2017,07,18,04,13,15.70
2017,07,18,04,14,15.70
2017,07,18,04,15,15.60
2017,07,18,04,16,15.60
2017,07,18,04,17,15.60
2017,07,18,04,18,15.60
2017,07,18,04,19,15.70
2017,07,18,04,20,15.70
2017,07,18,04,21,15.70
2017,07,18,04,22,15.70
2017,07,18,04,23,15.70
2017,07,18,04,24,15.70
2017,07,18,04,25,15.80
2017,07,18,04,26,15.80
2017,07,18,04,27,15.80
2017,07,18,04,28,15.80
2017,07,18,04,29,15.80
2017,07,18,04,30,15.80
2017,07,18,04,31,15.80
2017,07,18,04,32,15.80
2017,07,18,04,33,15.80
2017,07,18,04,34,15.80
2017,07,18,04,35,15.80
2017,07,18,04,36,15.80
2017,07,18,04,37,15.70
2017,07,18,04,38,15.70
2017,07,18,04,39,15.70
2017,07,18,04,40,15.70
2017,07,18,04,41,15.70
2017,07,18,04,42,15.60
2017,07,18,04,43,15.60
2017,07,18,04,44,15.60
2017,07,18,04,45,15.60
2017,07,18,04,46,15.60
2017,07,18,04,47,15.60
2017,07,18,04,48,15.60
2017,07,18,04,49,15.60
2017,07,18,04,50,15.70
2017,07,18,04,51,15.70
2017,07,18,04,52,15.70
2017,07,18,04,53,15.70
2017,07,18,04,54,15.70
2017,07,18,04,55,15.70
2017,07,18,04,56,15.70
2017,07,18,04,57,15.70
2017,07,18,04,58,15.70
2017,07,18,04,59,15.60
2017,07,18,05,00,15.60
2017,07,18,05,01,15.60
2017,07,18,05,02,15.60
2017,07,18,05,03,15.60
2017,07,18,05,04,15.60
2017,07,18,05,05,15.60
2017,07,18,05,06,15.60
2017,07,18,05,07,15.60
2017,07,18,05,08,15.60
2017,07,18,05,09,15.60
2017,07,18,05,10,15.60
2017,07,18,05,11,15.70
2017,07,18,05,12,15.70
2017,07,18,05,13,15.70
2017,07,18,05,14,15.70
2017,07,18,05,15,15.70
2017,07,18,05,16,15.70
2017,07,18,05,17,15.70
2017,07,18,05,18,15.70
2017,07,18,05,19,15.70
2017,07,18,05,20,15.60
2017,07,18,05,21,15.60
2017,07,18,05,22,15.60
2017,07,18,05,23,15.60
2017,07,18,05,24,15.60
2017,07,18,05,25,15.60
2017,07,18,05,26,15.60
2017,07,18,05,27,15.60
2017,07,18,05,28,15.50
2017,07,18,05,29,15.50
2017,07,18,05,30,15.50
2017,07,18,05,31,15.50
2017,07,18,05,32,15.50
2017,07,18,05,33,15.50
2017,07,18,05,34,15.50
2017,07,18,05,35,15.60
2017,07,18,05,36,15.70
2017,07,18,05,37,15.70
2017,07,18,05,38,15.80
2017,07,18,05,39,16.00
2017,07,18,05,40,16.10
2017,07,18,05,41,16.20
2017,07,18,05,42,16.30
2017,07,18,05,43,16.30
2017,07,18,05,44,16.40
2017,07,18,05,45,16.40
2017,07,18,05,46,16.50
2017,07,18,05,47,16.50
2017,07,18,05,48,16.50
2017,07,18,05,49,16.50
2017,07,18,05,50,16.50
2017,07,18,05,51,16.50
2017,07,18,05,52,16.40
2017,07,18,05,53,16.40
2017,07,18,05,54,16.30
2017,07,18,05,55,16.20
2017,07,18,05,56,16.10
2017,07,18,05,57,16.10
2017,07,18,05,58,16.00
2017,07,18,05,59,16.00
2017,07,18,06,00,15.90
2017,07,18,06,01,15.90
2017,07,18,06,02,15.80
2017,07,18,06,03,15.80
2017,07,18,06,04,15.80
2017,07,18,06,05,15.70
2017,07,18,06,06,15.70
2017,07,18,06,07,15.60
2017,07,18,06,08,15.60
2017,07,18,06,09,15.60
2017,07,18,06,10,15.50
2017,07,18,06,11,15.50
2017,07,18,06,12,15.40
2017,07,18,06,13,15.40
2017,07,18,06,14,15.40
2017,07,18,06,15,15.40
2017,07,18,06,16,15.30
2017,07,18,06,17,15.30
2017,07,18,06,18,15.30
2017,07,18,06,19,15.30
2017,07,18,06,20,15.30
2017,07,18,06,21,15.30
2017,07,18,06,22,15.30
2017,07,18,06,23,15.30
2017,07,18,06,24,15.30
2017,07,18,06,25,15.30
2017,07,18,06,26,15.30
2017,07,18,06,27,15.40
2017,07,18,06,28,15.40
2017,07,18,06,29,15.30
2017,07,18,06,30,15.30
2017,07,18,06,31,15.40
2017,07,18,06,32,15.30
2017,07,18,06,33,15.40
2017,07,18,06,34,15.40
2017,07,18,06,35,15.40
2017,07,18,06,36,15.40
2017,07,18,06,37,15.40
2017,07,18,06,38,15.40
2017,07,18,06,39,15.50
2017,07,18,06,40,15.50
2017,07,18,06,41,15.50
2017,07,18,06,42,15.50
2017,07,18,06,43,15.50
2017,07,18,06,44,15.50
2017,07,18,06,45,15.50
2017,07,18,06,46,15.50
2017,07,18,06,47,15.60
2017,07,18,06,48,15.60
2017,07,18,06,49,15.60
2017,07,18,06,50,15.60
2017,07,18,06,51,15.60
2017,07,18,06,52,15.70
2017,07,18,06,53,15.70
2017,07,18,06,54,15.70
2017,07,18,06,55,15.70
2017,07,18,06,56,15.80
2017,07,18,06,57,15.80
2017,07,18,06,58,15.90
2017,07,18,06,59,15.90
2017,07,18,07,00,15.90
2017,07,18,07,01,16.00
2017,07,18,07,02,16.00
2017,07,18,07,03,16.00
2017,07,18,07,04,16.10
2017,07,18,07,05,16.10
2017,07,18,07,06,16.20
2017,07,18,07,07,16.20
2017,07,18,07,08,16.20
2017,07,18,07,09,16.30
2017,07,18,07,10,16.30
2017,07,18,07,11,16.30
2017,07,18,07,12,16.40
2017,07,18,07,13,16.40
2017,07,18,07,14,16.50
2017,07,18,07,15,16.50
2017,07,18,07,16,16.60
2017,07,18,07,17,16.60
2017,07,18,07,18,16.70
2017,07,18,07,19,16.70
2017,07,18,07,20,16.80
2017,07,18,07,21,16.90
2017,07,18,07,22,17.00
2017,07,18,07,23,17.10
2017,07,18,07,24,17.20
2017,07,18,07,25,17.30
2017,07,18,07,26,17.40
2017,07,18,07,27,17.50
2017,07,18,07,28,17.50
2017,07,18,07,29,17.60
2017,07,18,07,30,17.70
2017,07,18,07,31,17.70
2017,07,18,07,32,17.80
2017,07,18,07,33,17.80
2017,07,18,07,34,17.90
2017,07,18,07,35,17.90
2017,07,18,07,36,17.90
2017,07,18,07,37,18.00
2017,07,18,07,38,18.10
2017,07,18,07,39,18.20
2017,07,18,07,40,18.20
2017,07,18,07,41,18.20
2017,07,18,07,42,18.30
2017,07,18,07,43,18.30
2017,07,18,07,44,18.40
2017,07,18,07,45,18.50
2017,07,18,07,46,18.50
2017,07,18,07,47,18.60
2017,07,18,07,48,18.60
2017,07,18,07,49,18.70
2017,07,18,07,50,18.70
2017,07,18,07,51,18.70
2017,07,18,07,52,18.70
2017,07,18,07,53,18.80
2017,07,18,07,54,18.80
2017,07,18,07,55,18.80
2017,07,18,07,56,18.90
2017,07,18,07,57,18.90
2017,07,18,07,58,19.00
2017,07,18,07,59,19.10
2017,07,18,08,00,19.10
2017,07,18,08,01,19.10
2017,07,18,08,02,19.10
2017,07,18,08,03,19.10
2017,07,18,08,04,19.10
2017,07,18,08,05,19.10
2017,07,18,08,06,19.10
2017,07,18,08,07,19.10
2017,07,18,08,08,19.20
2017,07,18,08,09,19.20
2017,07,18,08,10,19.20
2017,07,18,08,11,19.30
2017,07,18,08,12,19.30
2017,07,18,08,13,19.30
2017,07,18,08,14,19.30
2017,07,18,08,15,19.30
2017,07,18,08,16,19.30
2017,07,18,08,17,19.40
2017,07,18,08,18,19.40
2017,07,18,08,19,19.40
2017,07,18,08,20,19.40
2017,07,18,08,21,19.40
2017,07,18,08,22,19.40
2017,07,18,08,23,19.40
2017,07,18,08,24,19.40
2017,07,18,08,25,19.40
2017,07,18,08,26,19.40
2017,07,18,08,27,19.40
2017,07,18,08,28,19.30
2017,07,18,08,29,19.30
2017,07,18,08,30,19.30
2017,07,18,08,31,19.30
2017,07,18,08,32,19.30
2017,07,18,08,33,19.20
2017,07,18,08,34,19.20
2017,07,18,08,35,19.30
2017,07,18,08,36,19.30
2017,07,18,08,37,19.30
2017,07,18,08,38,19.30
2017,07,18,08,39,19.40
2017,07,18,08,40,19.40
2017,07,18,08,41,19.40
2017,07,18,08,42,19.40
2017,07,18,08,43,19.30
2017,07,18,08,44,19.30
2017,07,18,08,45,19.30
2017,07,18,08,46,19.30
2017,07,18,08,47,19.30
2017,07,18,08,48,19.30
2017,07,18,08,49,19.30
2017,07,18,08,50,19.30
2017,07,18,08,51,19.30
2017,07,18,08,52,19.40
2017,07,18,08,53,19.40
2017,07,18,08,54,19.50
2017,07,18,08,55,19.50
2017,07,18,08,56,19.60
2017,07,18,08,57,19.70
2017,07,18,08,58,19.70
2017,07,18,08,59,19.70
2017,07,18,09,00,19.70
2017,07,18,09,01,19.70
2017,07,18,09,02,19.70
2017,07,18,09,03,19.70
2017,07,18,09,04,19.70
2017,07,18,09,05,19.70
2017,07,18,09,06,19.70
2017,07,18,09,07,19.80
2017,07,18,09,08,19.80
2017,07,18,09,09,19.80
2017,07,18,09,10,19.70
2017,07,18,09,11,19.70
2017,07,18,09,12,19.70
2017,07,18,09,13,19.70
2017,07,18,09,14,19.80
2017,07,18,09,15,19.80
2017,07,18,09,16,19.80
2017,07,18,09,17,19.80
2017,07,18,09,18,19.90
2017,07,18,09,19,19.90
2017,07,18,09,20,20.00
2017,07,18,09,21,20.00
2017,07,18,09,22,20.10
2017,07,18,09,23,20.10
2017,07,18,09,24,20.10
2017,07,18,09,25,20.20
2017,07,18,09,26,20.30
2017,07,18,09,27,20.30
2017,07,18,09,28,20.30
2017,07,18,09,29,20.40
2017,07,18,09,30,20.40
2017,07,18,09,31,20.50
2017,07,18,09,32,20.60
2017,07,18,09,33,20.70
2017,07,18,09,34,20.80
2017,07,18,09,35,20.80
2017,07,18,09,36,20.80
2017,07,18,09,37,20.80
2017,07,18,09,38,20.80
2017,07,18,09,39,20.80
2017,07,18,09,40,20.90
2017,07,18,09,41,20.90
2017,07,18,09,42,20.90
2017,07,18,09,43,21.00
2017,07,18,09,44,21.00
2017,07,18,09,45,21.10
2017,07,18,09,46,21.00
2017,07,18,09,47,20.90
2017,07,18,09,48,20.90
2017,07,18,09,49,20.90
2017,07,18,09,50,20.90
2017,07,18,09,51,20.90
2017,07,18,09,52,21.00
2017,07,18,09,53,21.00
2017,07,18,09,54,21.10
2017,07,18,09,55,21.10
2017,07,18,09,56,21.20
2017,07,18,09,57,21.20
2017,07,18,09,58,21.20
2017,07,18,09,59,21.20
2017,07,18,10,00,21.20
2017,07,18,10,01,21.20
2017,07,18,10,02,21.20
2017,07,18,10,03,21.20
2017,07,18,10,04,21.20
2017,07,18,10,05,21.10
2017,07,18,10,06,21.00
2017,07,18,10,07,20.90
2017,07,18,10,08,20.90
2017,07,18,10,09,20.80
2017,07,18,10,10,20.80
2017,07,18,10,11,20.70
2017,07,18,10,12,20.60
2017,07,18,10,13,20.60
2017,07,18,10,14,20.60
2017,07,18,10,15,20.70
2017,07,18,10,16,20.70
2017,07,18,10,17,20.70
2017,07,18,10,18,20.80
2017,07,18,10,19,20.80
2017,07,18,10,20,20.80
2017,07,18,10,21,20.80
2017,07,18,10,22,20.80
2017,07,18,10,23,20.80
2017,07,18,10,24,20.80
2017,07,18,10,25,20.90
2017,07,18,10,26,20.90
2017,07,18,10,27,20.80
2017,07,18,10,28,20.70
2017,07,18,10,29,20.70
2017,07,18,10,30,20.70
2017,07,18,10,31,20.80
2017,07,18,10,32,20.80
2017,07,18,10,33,20.90
2017,07,18,10,34,20.90
2017,07,18,10,35,20.90
2017,07,18,10,36,20.90
2017,07,18,10,37,20.90
2017,07,18,10,38,20.90
2017,07,18,10,39,20.80
2017,07,18,10,40,20.80
2017,07,18,10,41,20.80
2017,07,18,10,42,20.80
2017,07,18,10,43,20.80
2017,07,18,10,44,20.80
2017,07,18,10,45,20.90
2017,07,18,10,46,20.90
2017,07,18,10,47,21.00
2017,07,18,10,48,21.10
2017,07,18,10,49,21.10
2017,07,18,10,50,21.20
2017,07,18,10,51,21.30
2017,07,18,10,52,21.30
2017,07,18,10,53,21.30
2017,07,18,10,54,21.40
2017,07,18,10,55,21.40
2017,07,18,10,56,21.40
2017,07,18,10,57,21.50
2017,07,18,10,58,21.60
2017,07,18,10,59,21.60
2017,07,18,11,00,21.70
2017,07,18,11,01,21.80
2017,07,18,11,02,21.80
2017,07,18,11,03,21.80
2017,07,18,11,04,21.80
2017,07,18,11,05,21.90
2017,07,18,11,06,21.90
2017,07,18,11,07,21.90
2017,07,18,11,08,21.90
2017,07,18,11,09,21.90
2017,07,18,11,10,21.90
2017,07,18,11,11,22.00
2017,07,18,11,12,22.00
2017,07,18,11,13,22.00
2017,07,18,11,14,22.00
2017,07,18,11,15,22.00
2017,07,18,11,16,22.00
2017,07,18,11,17,22.00
2017,07,18,11,18,21.90
2017,07,18,11,19,21.90
2017,07,18,11,20,21.90
2017,07,18,11,21,21.90
2017,07,18,11,22,21.90
2017,07,18,11,23,21.90
2017,07,18,11,24,21.90
2017,07,18,11,25,21.90
2017,07,18,11,26,21.80
2017,07,18,11,27,21.80
2017,07,18,11,28,21.80
2017,07,18,11,29,21.70
2017,07,18,11,30,21.70
2017,07,18,11,31,21.70
2017,07,18,11,32,21.70
2017,07,18,11,33,21.60
2017,07,18,11,34,21.70
2017,07,18,11,35,21.60
2017,07,18,11,36,21.60
2017,07,18,11,37,21.60
2017,07,18,11,38,21.60
2017,07,18,11,39,21.70
2017,07,18,11,40,21.70
2017,07,18,11,41,21.80
2017,07,18,11,42,21.80
2017,07,18,11,43,21.80
2017,07,18,11,44,21.70
2017,07,18,11,45,21.70
2017,07,18,11,46,21.70
2017,07,18,11,47,21.80
2017,07,18,11,48,21.80
2017,07,18,11,49,21.80
2017,07,18,11,50,21.80
2017,07,18,11,51,21.80
2017,07,18,11,52,21.90
2017,07,18,11,53,21.90
2017,07,18,11,54,21.90
2017,07,18,11,55,22.00
2017,07,18,11,56,22.00
2017,07,18,11,57,22.00
2017,07,18,11,58,22.00
2017,07,18,11,59,22.00
2017,07,18,12,00,21.80
2017,07,18,12,01,21.70
2017,07,18,12,02,21.60
2017,07,18,12,03,21.60
2017,07,18,12,04,21.50
2017,07,18,12,05,21.40
2017,07,18,12,06,21.40
2017,07,18,12,07,21.30
2017,07,18,12,08,21.20
2017,07,18,12,09,21.10
2017,07,18,12,10,21.10
2017,07,18,12,11,21.10
2017,07,18,12,12,21.00
2017,07,18,12,13,21.00
2017,07,18,12,14,21.00
2017,07,18,12,15,21.00
2017,07,18,12,16,21.00
2017,07,18,12,17,20.90
2017,07,18,12,18,21.00
2017,07,18,12,19,21.00
2017,07,18,12,20,21.10
2017,07,18,12,21,21.10
2017,07,18,12,22,21.00
2017,07,18,12,23,20.90
2017,07,18,12,24,20.80
2017,07,18,12,25,20.80
2017,07,18,12,26,20.70
2017,07,18,12,27,20.80
2017,07,18,12,28,20.80
2017,07,18,12,29,20.70
2017,07,18,12,30,20.70
2017,07,18,12,31,20.70
2017,07,18,12,32,20.60
2017,07,18,12,33,20.50
2017,07,18,12,34,20.40
2017,07,18,12,35,20.30
2017,07,18,12,36,20.20
2017,07,18,12,37,20.10
2017,07,18,12,38,20.10
2017,07,18,12,39,20.10
2017,07,18,12,40,20.10
2017,07,18,12,41,20.10
2017,07,18,12,42,20.10
2017,07,18,12,43,20.10
2017,07,18,12,44,20.20
2017,07,18,12,45,20.20
2017,07,18,12,46,20.20
2017,07,18,12,47,20.20
2017,07,18,12,48,20.20
2017,07,18,12,49,20.20
2017,07,18,12,50,20.20
2017,07,18,12,51,20.20
2017,07,18,12,52,20.20
2017,07,18,12,53,20.10
2017,07,18,12,54,20.10
2017,07,18,12,55,20.10
2017,07,18,12,56,20.10
2017,07,18,12,57,20.10
2017,07,18,12,58,20.10
2017,07,18,12,59,20.10
2017,07,18,13,00,20.00
2017,07,18,13,01,20.00
2017,07,18,13,02,20.00
2017,07,18,13,03,19.90
2017,07,18,13,04,19.90
2017,07,18,13,05,19.90
2017,07,18,13,06,19.90
2017,07,18,13,07,19.90
2017,07,18,13,08,19.90
2017,07,18,13,09,19.90
2017,07,18,13,10,20.00
2017,07,18,13,11,20.00
2017,07,18,13,12,20.00
2017,07,18,13,13,20.00
2017,07,18,13,14,20.00
2017,07,18,13,15,20.10
2017,07,18,13,16,20.10
2017,07,18,13,17,20.10
2017,07,18,13,18,20.20
2017,07,18,13,19,20.40
2017,07,18,13,20,20.50
2017,07,18,13,21,20.60
2017,07,18,13,22,20.70
2017,07,18,13,23,20.70
2017,07,18,13,24,20.60
2017,07,18,13,25,20.60
2017,07,18,13,26,20.60
2017,07,18,13,27,20.60
2017,07,18,13,28,20.50
2017,07,18,13,29,20.50
2017,07,18,13,30,20.40
2017,07,18,13,31,20.50
2017,07,18,13,32,20.60
2017,07,18,13,33,20.60
2017,07,18,13,34,20.70
2017,07,18,13,35,20.70
2017,07,18,13,36,20.80
2017,07,18,13,37,20.80
2017,07,18,13,38,20.80
2017,07,18,13,39,20.90
2017,07,18,13,40,20.90
2017,07,18,13,41,20.90
2017,07,18,13,42,20.80
2017,07,18,13,43,20.80
2017,07,18,13,44,20.80
2017,07,18,13,45,20.80
2017,07,18,13,46,20.80
2017,07,18,13,47,20.80
2017,07,18,13,48,20.80
2017,07,18,13,49,20.90
2017,07,18,13,50,21.00
2017,07,18,13,51,21.00
2017,07,18,13,52,21.10
2017,07,18,13,53,21.10
2017,07,18,13,54,21.10
2017,07,18,13,55,21.20
2017,07,18,13,56,21.30
2017,07,18,13,57,21.40
2017,07,18,13,58,21.50
2017,07,18,13,59,21.60
2017,07,18,14,00,21.70
2017,07,18,14,01,21.80
2017,07,18,14,02,21.80
2017,07,18,14,03,21.80
2017,07,18,14,04,21.90
2017,07,18,14,05,21.90
2017,07,18,14,06,21.90
2017,07,18,14,07,21.90
2017,07,18,14,08,21.90
2017,07,18,14,09,21.90
2017,07,18,14,10,21.90
2017,07,18,14,11,21.80
2017,07,18,14,12,21.80
2017,07,18,14,13,21.80
2017,07,18,14,14,21.80
2017,07,18,14,15,21.70
2017,07,18,14,16,21.80
2017,07,18,14,17,21.80
2017,07,18,14,18,21.80
2017,07,18,14,19,21.80
2017,07,18,14,20,21.90
2017,07,18,14,21,21.90
2017,07,18,14,22,21.90
2017,07,18,14,23,21.90
2017,07,18,14,24,21.90
2017,07,18,14,25,21.80
2017,07,18,14,26,21.80
2017,07,18,14,27,21.80
2017,07,18,14,28,21.90
2017,07,18,14,29,21.90
2017,07,18,14,30,21.90
2017,07,18,14,31,21.90
2017,07,18,14,32,21.90
2017,07,18,14,33,21.90
2017,07,18,14,34,21.90
2017,07,18,14,35,22.00
2017,07,18,14,36,22.00
2017,07,18,14,37,22.00
2017,07,18,14,38,22.00
2017,07,18,14,39,22.10
2017,07,18,14,40,22.10
2017,07,18,14,41,22.10
2017,07,18,14,42,22.20
2017,07,18,14,43,22.20
2017,07,18,14,44,22.20
2017,07,18,14,45,22.20
2017,07,18,14,46,22.20
2017,07,18,14,47,22.20
2017,07,18,14,48,22.20
2017,07,18,14,49,22.30
2017,07,18,14,50,22.30
2017,07,18,14,51,22.30
2017,07,18,14,52,22.30
2017,07,18,14,53,22.30
2017,07,18,14,54,22.40
2017,07,18,14,55,22.40
2017,07,18,14,56,22.50
2017,07,18,14,57,22.50
2017,07,18,14,58,22.50
2017,07,18,14,59,22.40
2017,07,18,15,00,22.40
2017,07,18,15,01,22.40
2017,07,18,15,02,22.40
2017,07,18,15,03,22.40
2017,07,18,15,04,22.40
2017,07,18,15,05,22.40
2017,07,18,15,06,22.40
2017,07,18,15,07,22.40
2017,07,18,15,08,22.40
2017,07,18,15,09,22.50
2017,07,18,15,10,22.50
2017,07,18,15,11,22.50
2017,07,18,15,12,22.50
2017,07,18,15,13,22.60
2017,07,18,15,14,22.60
2017,07,18,15,15,22.60
2017,07,18,15,16,22.60
2017,07,18,15,17,22.60
2017,07,18,15,18,22.60
2017,07,18,15,19,22.60
2017,07,18,15,20,22.70
2017,07,18,15,21,22.70
2017,07,18,15,22,22.70
2017,07,18,15,23,22.70
2017,07,18,15,24,22.70
2017,07,18,15,25,22.70
2017,07,18,15,26,22.60
2017,07,18,15,27,22.60
2017,07,18,15,28,22.60
2017,07,18,15,29,22.60
2017,07,18,15,30,22.60
2017,07,18,15,31,22.60
2017,07,18,15,32,22.60
2017,07,18,15,33,22.60
2017,07,18,15,34,22.60
2017,07,18,15,35,22.60
2017,07,18,15,36,22.60
2017,07,18,15,37,22.60
2017,07,18,15,38,22.60
2017,07,18,15,39,22.60
2017,07,18,15,40,22.60
2017,07,18,15,41,22.60
2017,07,18,15,42,22.60
2017,07,18,15,43,22.60
2017,07,18,15,44,22.60
2017,07,18,15,45,22.70
2017,07,18,15,46,22.70
2017,07,18,15,47,22.80
2017,07,18,15,48,22.80
2017,07,18,15,49,22.80
2017,07,18,15,50,22.80
2017,07,18,15,51,22.80
2017,07,18,15,52,22.80
2017,07,18,15,53,22.80
2017,07,18,15,54,22.80
2017,07,18,15,55,22.80
2017,07,18,15,56,22.80
2017,07,18,15,57,22.80
2017,07,18,15,58,22.90
2017,07,18,15,59,22.80
2017,07,18,16,00,22.80
2017,07,18,16,01,22.80
2017,07,18,16,02,22.80
2017,07,18,16,03,22.80
2017,07,18,16,04,22.80
2017,07,18,16,05,22.80
2017,07,18,16,06,22.90
2017,07,18,16,07,22.90
2017,07,18,16,08,22.90
2017,07,18,16,09,22.90
2017,07,18,16,10,23.00
2017,07,18,16,11,23.00
2017,07,18,16,12,23.00
2017,07,18,16,13,23.10
2017,07,18,16,14,23.10
2017,07,18,16,15,23.10
2017,07,18,16,16,23.10
2017,07,18,16,17,23.10
2017,07,18,16,18,23.20
2017,07,18,16,19,23.20
2017,07,18,16,20,23.20
2017,07,18,16,21,23.20
2017,07,18,16,22,23.20
2017,07,18,16,23,23.20
2017,07,18,16,24,23.20
2017,07,18,16,25,23.10
2017,07,18,16,26,23.10
2017,07,18,16,27,23.10
2017,07,18,16,28,23.10
2017,07,18,16,29,23.10
2017,07,18,16,30,23.10
2017,07,18,16,31,23.10
2017,07,18,16,32,23.10
2017,07,18,16,33,23.20
2017,07,18,16,34,23.20
2017,07,18,16,35,23.20
2017,07,18,16,36,23.20
2017,07,18,16,37,23.20
2017,07,18,16,38,23.20
2017,07,18,16,39,23.20
2017,07,18,16,40,23.20
2017,07,18,16,41,23.20
2017,07,18,16,42,23.20
2017,07,18,16,43,23.20
2017,07,18,16,44,23.20
2017,07,18,16,45,23.20
2017,07,18,16,46,23.20
2017,07,18,16,47,23.20
2017,07,18,16,48,23.30
2017,07,18,16,49,23.30
2017,07,18,16,50,23.30
2017,07,18,16,51,23.40
2017,07,18,16,52,23.40
2017,07,18,16,53,23.40
2017,07,18,16,54,23.40
2017,07,18,16,55,23.40
2017,07,18,16,56,23.40
2017,07,18,16,57,23.40
2017,07,18,16,58,23.40
2017,07,18,16,59,23.40
2017,07,18,17,00,23.40
2017,07,18,17,01,23.30
2017,07,18,17,02,23.30
2017,07,18,17,03,23.30
2017,07,18,17,04,23.30
2017,07,18,17,05,23.30
2017,07,18,17,06,23.40
2017,07,18,17,07,23.40
2017,07,18,17,08,23.40
2017,07,18,17,09,23.40
2017,07,18,17,10,23.40
2017,07,18,17,11,23.50
2017,07,18,17,12,23.50
2017,07,18,17,13,23.50
2017,07,18,17,14,23.60
2017,07,18,17,15,23.60
2017,07,18,17,16,23.60
2017,07,18,17,17,23.60
2017,07,18,17,18,23.60
2017,07,18,17,19,23.60